Change the Weather History Date:

Friday, December 27, 2013

  Actual Average Record
Temperature  
Mean Temperature 40 °F -  
Max Temperature 48 °F 30 °F 48 °F (2013)
Min Temperature 33 °F 22 °F -7 °F (1996)
Degree Days  
Heating Degree Days 24    
Moisture  
Dew Point 38 °F    
Average Humidity 88    
Maximum Humidity 100    
Minimum Humidity 66    
Precipitation  
Precipitation 0.00 in - - ()
Sea Level Pressure  
Sea Level Pressure 30.06 in    
Wind  
Wind Speed 10 mph ()    
Max Wind Speed 23 mph    
Max Gust Speed 39 mph    
Visibility 7.7 miles    
Events Rain    
Averages and records for this station are not official NWS values.
T = Trace of Precipitation, MM = Missing Value Source: Averaged Metar Reports

Daily Weather History Graph

Daily Weather History Graph

Search for Another Location

Airport or City:

Trip Planner

Search our weather history database for the weather conditions in past years. The results will help you decide how hot, cold, wet, or windy it might be!

Date:

Astronomy

Dec. 27, 2013 Rise Set
Actual Time 8:05 AM PST 4:09 PM PST
Civil Twilight 7:26 AM PST 4:48 PM PST
Nautical Twilight 6:45 AM PST 5:30 PM PST
Astronomical Twilight 6:05 AM PST 6:09 PM PST
Moon 2:22 AM PST (12/27) 12:41 PM PST (12/27)
Length of Visible Light 9h 21m
Length of Day
8h 04m
Waning Crescent, 27% of the Moon is Illuminated
Dec 27
Waning Crescent
Jan 1
New
Jan 7
First Quarter
Jan 15
Full
Jan 23
Last Quarter

Hourly Weather History & Observations

Time (PST) Temp. Windchill Dew Point Humidity Pressure Visibility Wind Dir Wind Speed Gust Speed Precip Events Conditions
12:00 AM 48.2 °F - 37.4 °F 66% 30.10 in 9.0 mi SSW 19.6 mph 28.8 mph N/A   Clear
1:00 AM 48.2 °F - 37.4 °F 66% 30.08 in 9.0 mi SSW 17.3 mph - N/A   Clear
2:00 AM 46.4 °F 38.3 °F 37.4 °F 71% 30.06 in 9.0 mi SSW 23.0 mph 38.0 mph N/A   Clear
3:00 AM 37.4 °F 31.4 °F 32.0 °F 81% 30.07 in 9.0 mi Variable 8.1 mph - N/A   Clear
4:00 AM 35.6 °F 31.7 °F 32.0 °F 87% 30.06 in 9.0 mi Variable 4.6 mph - N/A   Clear
5:00 AM 33.8 °F 29.6 °F 32.0 °F 93% 30.04 in 9.0 mi NNE 4.6 mph - N/A   Clear
6:00 AM 33.8 °F 29.6 °F 32.0 °F 93% 30.00 in 9.0 mi Variable 4.6 mph - N/A   Mostly Cloudy
7:00 AM 35.6 °F - 32.0 °F 87% 29.98 in 9.0 mi Variable 2.3 mph - N/A   Scattered Clouds
7:46 AM 35.6 °F 32.8 °F 33.8 °F 93% 29.94 in 9.0 mi Variable 3.5 mph - N/A Rain Light Rain
7:57 AM 37.4 °F 32.8 °F 33.8 °F 87% 29.93 in 9.0 mi NNE 5.8 mph - N/A   Mostly Cloudy
8:00 AM 37.4 °F 32.1 °F 33.8 °F 87% 29.93 in 9.0 mi NE 6.9 mph - N/A   Mostly Cloudy
8:09 AM 37.4 °F 34.9 °F 33.8 °F 87% 29.93 in - Variable 3.5 mph - N/A Rain Light Rain
8:19 AM 42.8 °F 35.4 °F 39.2 °F 87% 29.92 in 9.0 mi Variable 15.0 mph 28.8 mph N/A Rain Light Rain
9:00 AM 46.4 °F 40.1 °F 41.0 °F 81% 29.91 in 9.0 mi SSW 15.0 mph 33.4 mph N/A Rain Light Rain
9:31 AM 42.8 °F 35.1 °F 41.0 °F 93% 29.91 in 9.0 mi SSW 16.1 mph - N/A   Overcast
9:45 AM 46.4 °F 38.5 °F 41.0 °F 81% 29.90 in 9.0 mi SSW 21.9 mph 39.1 mph N/A Rain Light Rain
10:00 AM 46.4 °F 38.5 °F 41.0 °F 81% 29.89 in 9.0 mi South 21.9 mph 32.2 mph N/A Rain Light Rain
10:07 AM 46.4 °F 40.1 °F 42.8 °F 87% 29.89 in 9.0 mi SSW 15.0 mph 32.2 mph N/A   Overcast
10:09 AM 46.4 °F 39.8 °F 42.8 °F 87% 29.90 in 9.0 mi SSW 16.1 mph 29.9 mph N/A Rain Light Rain
10:31 AM 44.6 °F 36.9 °F 41.0 °F 87% 29.89 in 9.0 mi Variable 18.4 mph 29.9 mph N/A   Overcast
10:47 AM 46.4 °F 39.5 °F 42.8 °F 87% 29.90 in 9.0 mi SSW 17.3 mph 33.4 mph N/A Rain Light Rain
11:00 AM 46.4 °F 39.8 °F 42.8 °F 87% 29.90 in 9.0 mi South 16.1 mph 33.4 mph N/A Rain Light Rain
11:36 AM 44.6 °F 36.9 °F 42.8 °F 93% 29.89 in 9.0 mi South 18.4 mph 27.6 mph N/A   Overcast
11:43 AM 46.4 °F 40.4 °F 42.8 °F 87% 29.90 in - South 13.8 mph 24.2 mph N/A Rain Light Rain
12:00 PM 44.6 °F 38.1 °F 42.8 °F 93% 29.90 in 9.0 mi South 13.8 mph 23.0 mph N/A Rain Light Rain
12:08 PM 44.6 °F 36.6 °F 42.8 °F 93% 29.91 in 9.0 mi South 19.6 mph - N/A   Overcast
12:19 PM 44.6 °F 36.6 °F 42.8 °F 93% 29.90 in - South 19.6 mph 27.6 mph N/A Rain Light Rain
12:39 PM 46.4 °F 40.4 °F 42.8 °F 87% 29.89 in 9.0 mi South 13.8 mph 26.5 mph N/A   Overcast
12:40 PM 46.4 °F 40.1 °F 42.8 °F 87% 29.89 in - South 15.0 mph 26.5 mph N/A Rain Light Rain
12:43 PM 46.4 °F 39.8 °F 42.8 °F 87% 29.89 in 9.0 mi South 16.1 mph - N/A   Mostly Cloudy
12:49 PM 44.6 °F 38.8 °F 41.0 °F 87% 29.91 in 9.0 mi SSW 11.5 mph - N/A Rain Light Rain
1:00 PM 46.4 °F 38.7 °F 42.8 °F 87% 29.91 in 9.0 mi SSW 20.7 mph 32.2 mph N/A Rain Light Rain
1:49 PM 46.4 °F 39.5 °F 41.0 °F 81% 29.92 in 9.0 mi SSW 17.3 mph 32.2 mph N/A   Overcast
2:00 PM 46.4 °F 38.5 °F 41.0 °F 81% 29.92 in 9.0 mi SSW 21.9 mph 34.5 mph N/A Rain Light Rain
2:12 PM 46.4 °F 38.3 °F 41.0 °F 81% 29.92 in 9.0 mi SSW 23.0 mph 32.2 mph N/A   Overcast
2:31 PM 46.4 °F 39.0 °F 41.0 °F 81% 29.92 in 9.0 mi SSW 19.6 mph 31.1 mph N/A Rain Light Rain
2:40 PM 46.4 °F 38.5 °F 41.0 °F 81% 29.93 in 9.0 mi SSW 21.9 mph 38.0 mph N/A   Mostly Cloudy
3:00 PM 48.2 °F - 39.2 °F 71% 29.96 in 9.0 mi South 21.9 mph 33.4 mph N/A   Mostly Cloudy
3:17 PM 48.2 °F - 39.2 °F 71% 29.98 in 9.0 mi South 12.7 mph 29.9 mph N/A Rain Light Rain
3:19 PM 46.4 °F 39.8 °F 39.2 °F 76% 29.98 in 9.0 mi South 16.1 mph - N/A   Overcast
3:45 PM 46.4 °F 41.1 °F 41.0 °F 81% 30.01 in 9.0 mi South 11.5 mph 21.9 mph N/A   Mostly Cloudy
4:00 PM 46.4 °F 42.9 °F 41.0 °F 81% 30.02 in - South 6.9 mph 17.3 mph N/A   Overcast
4:20 PM 46.4 °F - 41.0 °F 81% 30.06 in 9.0 mi Calm Calm - N/A Rain Light Rain
5:00 PM 44.6 °F 40.2 °F 41.0 °F 87% 30.06 in 9.0 mi South 8.1 mph - N/A Rain Light Rain
5:02 PM 44.6 °F 39.2 °F 39.2 °F 81% 30.06 in 9.0 mi South 10.4 mph - N/A   Mostly Cloudy
7:00 PM 37.4 °F 33.8 °F 37.4 °F 100% 30.15 in 9.0 mi NNE 4.6 mph - N/A   Clear
7:22 PM 39.2 °F - 37.4 °F 93% 30.17 in 9.0 mi Calm Calm - N/A   Mostly Cloudy
7:29 PM 39.2 °F 37.0 °F 39.2 °F 100% 30.17 in 9.0 mi Variable 3.5 mph - N/A   Mostly Cloudy
8:00 PM 39.2 °F - 37.4 °F 93% 30.19 in 9.0 mi Variable 2.3 mph - N/A   Mostly Cloudy
8:14 PM 37.4 °F - 35.6 °F 93% 30.21 in 3.0 mi Variable 2.3 mph - N/A   Overcast
8:24 PM 37.4 °F 34.9 °F 37.4 °F 100% 30.21 in 8.0 mi SE 3.5 mph - N/A   Overcast
9:00 PM 37.4 °F - 35.6 °F 93% 30.22 in 8.0 mi Calm Calm - N/A   Mostly Cloudy
9:01 PM 37.4 °F - 35.6 °F 93% 30.22 in 5.0 mi Calm Calm - N/A   Mostly Cloudy
9:11 PM 37.4 °F - 35.6 °F 93% 30.23 in 6.0 mi Variable 2.3 mph - N/A   Mist
9:23 PM 37.4 °F 34.9 °F 35.6 °F 93% 30.24 in 1.8 mi Variable 3.5 mph - N/A   Mist
10:00 PM 37.4 °F - 35.6 °F 93% 30.26 in 1.0 mi Calm Calm - N/A   Overcast
10:04 PM 37.4 °F - 37.4 °F 100% 30.26 in 7.0 mi Variable 2.3 mph - N/A   Overcast
10:24 PM 37.4 °F 34.9 °F 37.4 °F 100% 30.28 in 6.0 mi North 3.5 mph - N/A   Overcast
10:25 PM 37.4 °F 34.9 °F 35.6 °F 93% 30.28 in 3.0 mi North 3.5 mph - N/A   Overcast
10:40 PM 37.4 °F - 37.4 °F 100% 30.29 in 3.0 mi Variable 2.3 mph - N/A   Overcast
11:00 PM 37.4 °F - 35.6 °F 93% 30.30 in 8.0 mi Calm Calm - N/A   Overcast
11:07 PM 37.4 °F - 35.6 °F 93% 30.30 in 5.0 mi Calm Calm - N/A   Overcast
11:13 PM 35.6 °F - 35.6 °F 100% 30.30 in 2.5 mi Calm Calm - N/A   Mostly Cloudy
11:24 PM 35.6 °F - 35.6 °F 100% 30.30 in 3.0 mi Calm Calm - N/A   Overcast
11:26 PM 37.4 °F - 35.6 °F 93% 30.30 in 6.0 mi Calm Calm - N/A   Overcast
11:30 PM 37.4 °F - 35.6 °F 93% 30.30 in 9.0 mi Calm Calm - N/A   Overcast
11:31 PM 37.4 °F - 35.6 °F 93% 30.30 in 9.0 mi Calm Calm - N/A   Overcast
11:48 PM 37.4 °F - 35.6 °F 93% 30.31 in - Variable 2.3 mph - N/A   Mostly Cloudy
11:49 PM 37.4 °F - 35.6 °F 93% 30.31 in 1.5 mi Variable 2.3 mph - N/A   Mostly Cloudy
11:55 PM 35.6 °F - 35.6 °F 100% 30.32 in 1.8 mi Variable 2.3 mph - N/A   Mostly Cloudy